STARLINK-1944 (46796 NORAD) Tracking and Keplerian Element Data

This shows tracking and keplerian element data for the satellite.

Feedback or suggestion? Click here.




ElementValue
Catalog46796
NameSTARLINK-1944
Epoch Orbit528
Epoch Day331.16668981
Epoch Year2020
RAAN0.792
Inclination53.0551
Eccentricity0.0001097
Argument of Perigee70.4505
Mean Anonmoly133.8262
Mean Motion15.62756058
Decay Rate0.00040273
L11 46796U 20074BK 20331.16668981 .00040273 00000-0 44344-3 0 9997
L22 46796 53.0551 0.7920 0001097 70.4505 133.8262 15.62756058 5284

Live tracking and technical data element details for STARLINK-1944 (NORAD 46796). STARLINK-1944 can be tracked NOW for your location showing map with azimuth and elevation plus other details from your city location.

Track the satellite on the map from your city or location and see movement details for azimuth, elevation, latitude, longitude, range, height, and movement on the map or in text.







IsCatalogInMostPopularTable: catalog: 46796, numindb: 5
Update: records affected: 1



GetName: 46796 STARLINK-1944

Hit Count: updated at: Thu, 26 Nov 2020 17:52:37 GMT